[[{"header":{"parameterUnit":"m.s-1","parameterCategory":1,"la1":30.2991,"la2":30.254,"lo1":-89.0895,"lo2":-89.0444,"dy":0.0017,"dx":0.0017,"nx":28,"ny":28,"refTime":"2024-07-02T09:00:00:Z","depth":0,"parameterNumber":2,"parameterNumberName":"U-component_of_WINDS"},"data":[0,0,0,0,0,0,0,0,0,0,0,0,0,0,0,0,0,0,0,0,0,0,0,0,0,0,0,0,0,0,0,0,0,0,0,0,0,0,0,0,0,0,0,0,0,0,0,0,0,0,0,0,0,0,0,0,0,0,-0.2481,-0.248,0,-0.2412,-0.2412,-0.2411,-0.2413,-0.2414,-0.2415,-0.2416,-0.2346,-0.2343,-0.2341,0,0,0,0,0,0,0,0,0,0,0,0,0,-0.2613,-0.2611,-0.2481,-0.248,-0.2479,-0.2413,-0.2412,-0.2411,-0.2413,-0.2414,-0.2415,-0.2416,-0.2347,-0.2344,-0.234,0,0,0,0,0,0,0,0,0,0,0,0,0,-0.2552,-0.261,-0.2481,-0.2472,-0.2471,-0.2413,-0.2412,-0.241,-0.2413,-0.2414,-0.2415,-0.2417,-0.2348,-0.2344,-0.234,-0.2287,0,0,-0.2328,-0.2326,0,0,0,0,0,0,0,0,-0.2555,-0.2547,-0.2474,-0.2473,-0.2471,-0.2423,-0.2433,-0.2369,-0.2412,-0.2435,-0.2416,-0.2417,-0.237,-0.2365,-0.2349,-0.2283,-0.228,-0.2327,-0.2325,-0.2323,-0.2322,0,0,0,0,0,0,0,-0.2559,-0.255,-0.2454,-0.2473,-0.2471,-0.2472,-0.2464,-0.2421,-0.2396,-0.2433,-0.2433,-0.2425,-0.237,-0.2353,-0.2347,-0.2279,-0.2327,-0.2324,-0.2321,-0.232,-0.2166,-0.2165,0,0,0,0,0,0,-0.2566,-0.2553,-0.2456,-0.2452,-0.2517,-0.2468,-0.246,-0.2437,-0.2396,-0.2391,-0.2423,-0.2425,-0.2359,-0.2352,-0.2345,-0.2279,-0.2323,-0.2319,-0.2317,-0.2168,-0.2166,-0.2164,0,0,0,0,0,0,-0.2568,-0.2557,-0.2459,-0.2502,-0.249,-0.2464,-0.2438,-0.2435,-0.2418,-0.2389,-0.2385,-0.2411,-0.236,-0.235,-0.2301,-0.2277,-0.2317,-0.2314,-0.217,-0.2167,-0.2165,-0.2148,0,0,0,0,0,0,-0.2572,-0.2558,-0.2537,-0.2502,-0.2488,-0.2416,-0.2437,-0.2432,-0.241,-0.2412,-0.2376,-0.2371,-0.236,-0.2307,-0.2297,-0.2272,-0.231,-0.2172,-0.2169,-0.2166,-0.2151,-0.2145,-0.2141,0,0,0,0,0,-0.2577,-0.2535,-0.2536,-0.2525,-0.2461,-0.2415,-0.2407,-0.2395,-0.2408,-0.2388,-0.2369,-0.2372,-0.2281,-0.2302,-0.229,-0.2264,-0.2173,-0.217,-0.2166,-0.2153,-0.2146,-0.2141,0,0,0,0,0,0,-0.2569,-0.2531,-0.2531,-0.2477,-0.2449,-0.2415,-0.2389,-0.2388,-0.2356,-0.2359,-0.2346,-0.2337,-0.2288,-0.2271,-0.2295,-0.221,-0.2229,-0.2223,-0.2223,-0.2216,-0.2212,-0.2217,-0.2307,0,0,0,0,0,-0.2561,-0.2526,-0.2494,-0.245,-0.2436,-0.2414,-0.2394,-0.2387,-0.2358,-0.2346,-0.2324,-0.2295,-0.226,-0.2237,-0.2203,-0.2148,-0.214,-0.2124,-0.2119,-0.2115,-0.211,-0.208,-0.2072,-0.2152,-0.2152,-0.2152,0,0,-0.2544,-0.2519,-0.2497,-0.2447,-0.2425,-0.2389,-0.2405,-0.2366,-0.2339,-0.234,-0.2292,-0.2275,-0.2242,-0.2189,-0.2165,-0.2174,-0.2086,-0.2111,-0.2108,-0.2105,-0.2075,-0.2067,-0.2061,-0.215,-0.215,-0.2151,0,0,-0.2495,-0.2472,-0.2432,-0.2409,-0.2375,-0.2361,-0.2351,-0.2317,-0.2306,-0.2257,-0.2256,-0.2225,-0.2164,-0.2141,-0.2121,-0.2062,-0.2064,-0.2052,-0.2026,-0.1996,-0.199,-0.1984,-0.1963,-0.1956,-0.2047,-0.2047,-0.2047,0,-0.2478,-0.2424,-0.2412,-0.2373,-0.2351,-0.2349,-0.2309,-0.2287,-0.2243,-0.2228,-0.2239,-0.2163,-0.2141,-0.2082,-0.2068,-0.2052,-0.204,-0.2056,-0.1992,-0.1986,-0.198,-0.196,-0.1952,-0.2045,-0.2046,-0.2046,-0.2046,0,-0.2405,-0.2367,-0.2339,-0.2297,-0.2272,-0.2232,-0.2214,-0.219,-0.2185,-0.217,-0.212,-0.2094,-0.2054,-0.204,-0.2035,-0.198,-0.1987,-0.1995,-0.2013,-0.1972,-0.1952,-0.1945,-0.2044,-0.2044,-0.2044,-0.2045,0,0,-0.2349,-0.23,-0.229,-0.2271,-0.2232,-0.2203,-0.2163,-0.2124,-0.2104,-0.2074,-0.204,-0.1989,-0.1996,-0.1973,-0.1966,-0.1939,-0.1894,-0.195,-0.1949,-0.1941,-0.1832,-0.1827,-0.1818,-0.1895,-0.1893,-0.1892,-0.1835,0,-0.2296,-0.2226,-0.2213,-0.2151,-0.2116,-0.2114,-0.2079,-0.2052,-0.2037,-0.2005,-0.1988,-0.1952,-0.1964,-0.195,-0.1924,-0.1905,-0.1872,-0.1909,-0.1864,-0.1862,-0.1872,-0.1808,-0.1802,-0.175,-0.1827,-0.1826,-0.1825,0,-0.2225,-0.2192,-0.2127,-0.2093,-0.2078,-0.2047,-0.201,-0.198,-0.1948,-0.1939,-0.1914,-0.1909,-0.1868,-0.1888,-0.1831,-0.1856,-0.1837,-0.1825,-0.1822,-0.1818,-0.1841,-0.1802,-0.1732,-0.1725,-0.1813,-0.1814,-0.1815,0,-0.2191,-0.2131,-0.2084,-0.2067,-0.2026,-0.2005,-0.1987,-0.1957,-0.1934,-0.1902,-0.1887,-0.185,-0.183,-0.1802,-0.1787,-0.1804,-0.1731,-0.1751,-0.1722,-0.1723,-0.1707,-0.1708,-0.1634,-0.1695,-0.1695,-0.1695,-0.1695,0,-0.2133,-0.2093,-0.2068,-0.2039,-0.1994,-0.198,-0.1936,-0.1919,-0.1892,-0.186,-0.1855,-0.1825,-0.1808,-0.1775,-0.1763,-0.1718,-0.1709,-0.17,-0.1697,-0.17,-0.1701,-0.1687,-0.1691,-0.1693,-0.1693,-0.1694,-0.1694,0,-0.2088,-0.2069,-0.2018,-0.1983,-0.1973,-0.1942,-0.1912,-0.1884,-0.1868,-0.1827,-0.1817,-0.1793,-0.1754,-0.1736,-0.1688,-0.1681,-0.1628,-0.1628,-0.1639,-0.1638,-0.161,-0.1613,-0.1524,-0.1512,-0.1581,-0.158,-0.158,0,-0.2052,-0.2021,-0.1983,-0.1961,-0.1942,-0.1906,-0.1883,-0.1867,-0.1843,-0.1805,-0.1781,-0.1742,-0.171,-0.1648,-0.1626,-0.1589,-0.1588,-0.156,-0.1583,-0.1587,-0.1588,-0.159,-0.1587,-0.1556,-0.1555,-0.1555,-0.1554,0,-0.1991,-0.1983,-0.1949,-0.1912,-0.1884,-0.1854,-0.1824,-0.1807,-0.1787,-0.176,-0.1719,-0.1694,-0.1645,-0.1606,-0.1568,-0.155,-0.1548,-0.1547,-0.1538,-0.1541,-0.1548,-0.1544,-0.1627,-0.1549,-0.155,-0.155,-0.155,-0.155,-0.1949,-0.1921,-0.189,-0.1852,-0.1828,-0.1801,-0.1772,-0.1753,-0.1719,-0.1678,-0.1671,-0.1628,-0.1597,-0.1545,-0.1525,-0.1492,-0.1498,-0.1486,-0.1483,-0.148,-0.1479,-0.1554,-0.1485,-0.1485,-0.1485,-0.1485,-0.1485,0,-0.1888,-0.1867,-0.1832,-0.1791,-0.1761,-0.1762,-0.173,-0.1705,-0.1667,-0.1638,-0.1606,-0.156,-0.1522,-0.1497,-0.1458,-0.1436,-0.1435,-0.1427,-0.1428,-0.1424,-0.1475,-0.1486,-0.1429,-0.1429,-0.1429,-0.1429,-0.1429,-0.1429,-0.1852,-0.1805,-0.1793,-0.1734,-0.1714,-0.1672,-0.1653,-0.1627,-0.1604,-0.1552,-0.1521,-0.1504,-0.1477,-0.1436,-0.1401,-0.1395,-0.1381,-0.1373,-0.1367,-0.1414,-0.142,-0.1426,-0.1436,-0.137,-0.137,-0.1319,-0.1318,-0.1318]},{"header":{"parameterUnit":"m.s-1","parameterCategory":1,"la1":30.2991,"la2":30.254,"lo1":-89.0895,"lo2":-89.0444,"dy":0.0017,"dx":0.0017,"nx":28,"ny":28,"refTime":"2024-07-02T09:00:00:Z","depth":0,"parameterNumber":3,"parameterNumberName":"V-component_of_WINDS"},"data":[0,0,0,0,0,0,0,0,0,0,0,0,0,0,0,0,0,0,0,0,0,0,0,0,0,0,0,0,0,0,0,0,0,0,0,0,0,0,0,0,0,0,0,0,0,0,0,0,0,0,0,0,0,0,0,0,0,0,2.6002,2.6002,0,2.6028,2.6029,2.6029,2.6049,2.6049,2.6049,2.6049,2.6071,2.6072,2.6072,0,0,0,0,0,0,0,0,0,0,0,0,0,2.5967,2.5967,2.6002,2.6002,2.6002,2.6028,2.6029,2.6029,2.6049,2.6049,2.6049,2.6049,2.6071,2.6071,2.6072,0,0,0,0,0,0,0,0,0,0,0,0,0,2.5986,2.5967,2.6002,2.6016,2.6017,2.6028,2.6029,2.6029,2.6049,2.6049,2.6049,2.605,2.6071,2.6071,2.6072,2.607,0,0,2.6074,2.6074,0,0,0,0,0,0,0,0,2.5985,2.5987,2.6013,2.6015,2.6016,2.6036,2.6024,2.6043,2.6049,2.6037,2.6049,2.605,2.6059,2.606,2.6065,2.6071,2.6072,2.6074,2.6074,2.6075,2.6075,0,0,0,0,0,0,0,2.5984,2.5986,2.6012,2.6014,2.6016,2.602,2.6023,2.6028,2.6045,2.6038,2.6039,2.6042,2.606,2.6064,2.6065,2.6072,2.6074,2.6074,2.6075,2.6075,2.6082,2.6082,0,0,0,0,0,0,2.5981,2.5985,2.6011,2.6013,2.6001,2.602,2.6024,2.6029,2.6046,2.6048,2.6042,2.6043,2.6063,2.6064,2.6066,2.6067,2.6075,2.6075,2.6075,2.6082,2.6082,2.6082,0,0,0,0,0,0,2.598,2.5983,2.601,2.6,2.6003,2.6021,2.6026,2.6029,2.6034,2.6049,2.6052,2.6043,2.6063,2.6065,2.607,2.6068,2.6075,2.6076,2.6082,2.6082,2.6082,2.6066,0,0,0,0,0,0,2.5979,2.5982,2.5982,2.5999,2.6004,2.6014,2.6026,2.603,2.6035,2.6037,2.6051,2.6053,2.6063,2.6069,2.6071,2.6068,2.6076,2.6083,2.6082,2.6082,2.6067,2.6066,2.6064,0,0,0,0,0,2.5977,2.5974,2.5981,2.5984,2.6004,2.6014,2.6016,2.6029,2.6035,2.6035,2.6045,2.6053,2.6068,2.6069,2.6071,2.6069,2.6083,2.6082,2.6082,2.6068,2.6066,2.6064,0,0,0,0,0,0,2.5952,2.5976,2.5985,2.5987,2.5999,2.6017,2.6016,2.6026,2.6035,2.6036,2.605,2.6053,2.6057,2.6064,2.6065,2.607,2.6077,2.6077,2.6065,2.6063,2.6062,2.606,2.6077,0,0,0,0,0,2.5948,2.5955,2.5975,2.5976,2.5982,2.5998,2.6003,2.6013,2.6024,2.6029,2.6039,2.6049,2.6057,2.606,2.6068,2.6069,2.6073,2.6069,2.6068,2.6067,2.6066,2.607,2.6069,2.6081,2.6081,2.6081,0,0,2.5937,2.5951,2.5954,2.5971,2.5981,2.5988,2.6002,2.6007,2.6013,2.6029,2.6035,2.6044,2.6056,2.606,2.6062,2.6065,2.6064,2.6066,2.6065,2.6065,2.6069,2.6068,2.6067,2.608,2.608,2.608,0,0,2.5921,2.5932,2.5935,2.5946,2.5963,2.5975,2.5976,2.5994,2.6001,2.6008,2.6021,2.6028,2.604,2.6049,2.6055,2.6049,2.6057,2.6051,2.6042,2.6046,2.6045,2.6044,2.6043,2.6042,2.605,2.605,2.605,0,2.5904,2.5917,2.5935,2.5942,2.595,2.5968,2.5972,2.5981,2.5998,2.6003,2.6007,2.6026,2.6035,2.6042,2.6042,2.6046,2.6048,2.6048,2.6044,2.6044,2.6043,2.6042,2.6042,2.6049,2.605,2.605,2.605,0,2.5897,2.5906,2.5906,2.5926,2.5934,2.5938,2.5958,2.5964,2.5975,2.5986,2.5995,2.6008,2.602,2.6023,2.6031,2.6033,2.6035,2.6042,2.6048,2.6041,2.604,2.604,2.6048,2.6049,2.6049,2.6049,0,0,2.5861,2.5895,2.5895,2.5906,2.5928,2.5934,2.5941,2.5956,2.5961,2.5974,2.598,2.5993,2.6001,2.6008,2.6019,2.6022,2.6019,2.6029,2.603,2.6027,2.6023,2.6017,2.6016,2.6025,2.6025,2.6025,2.6022,0,2.5849,2.5864,2.5883,2.5891,2.59,2.5921,2.5927,2.5941,2.5954,2.5963,2.5977,2.5986,2.5995,2.6,2.6005,2.6018,2.6018,2.6019,2.6031,2.6031,2.6026,2.6016,2.6009,2.6005,2.6022,2.6022,2.6022,0,2.5835,2.585,2.586,2.5885,2.589,2.5895,2.5912,2.5921,2.5939,2.5948,2.5959,2.5972,2.5981,2.5989,2.6002,2.6002,2.6009,2.6017,2.6017,2.6018,2.6025,2.6016,2.6003,2.6003,2.6021,2.6021,2.6021,0,2.5809,2.5832,2.5842,2.585,2.5879,2.5883,2.5895,2.5914,2.5923,2.5937,2.5943,2.5958,2.5966,2.5977,2.5994,2.5998,2.6006,2.6015,2.6014,2.6014,2.6013,2.6012,2.6001,2.6018,2.6018,2.6018,2.6018,0,2.5792,2.5798,2.5831,2.5837,2.5845,2.5867,2.5874,2.5888,2.5905,2.5914,2.5933,2.5941,2.5963,2.5974,2.5988,2.5998,2.6001,2.6009,2.6012,2.6006,2.6006,2.601,2.601,2.6018,2.6018,2.6018,2.6018,0,2.5763,2.5786,2.5798,2.5827,2.5835,2.5839,2.5863,2.587,2.5886,2.5898,2.5902,2.5926,2.594,2.596,2.5979,2.5988,2.5997,2.6002,2.5991,2.5993,2.5992,2.5991,2.5982,2.5982,2.5999,2.5999,2.5999,0,2.575,2.5756,2.5787,2.5796,2.5809,2.5822,2.5832,2.5856,2.5866,2.589,2.5894,2.5911,2.5925,2.5947,2.5966,2.5982,2.5987,2.5984,2.5989,2.5985,2.5988,2.5987,2.5989,2.5981,2.5981,2.598,2.598,0,2.5726,2.5739,2.5754,2.5774,2.5787,2.5804,2.5821,2.5827,2.5854,2.5865,2.5882,2.5893,2.5916,2.5932,2.5952,2.5964,2.5977,2.5979,2.598,2.5973,2.5967,2.5971,2.5986,2.5978,2.5978,2.5978,2.5979,2.5979,2.5705,2.5712,2.5736,2.5754,2.5771,2.5788,2.5797,2.5816,2.5831,2.5852,2.5866,2.5882,2.5903,2.5931,2.5943,2.5957,2.5961,2.5962,2.5962,2.5962,2.5961,2.5967,2.596,2.596,2.596,2.596,2.596,0,2.5682,2.57,2.5716,2.5742,2.5756,2.5771,2.5792,2.5803,2.5818,2.5838,2.5853,2.5874,2.5891,2.5914,2.5933,2.5939,2.5946,2.5943,2.5942,2.5946,2.5955,2.5953,2.5938,2.5938,2.5938,2.5938,2.5938,2.5938,2.5671,2.5685,2.5701,2.5724,2.5742,2.576,2.5771,2.5788,2.5804,2.5827,2.5843,2.5859,2.588,2.5902,2.5919,2.5925,2.5931,2.5927,2.5935,2.5942,2.5944,2.5946,2.5944,2.5928,2.5928,2.5924,2.5924,2.5924]}]]